| time (UTC) | temp C | wind direction | speed KPH | gust KPH | rain 1hr cm | rain 24hr cm | rain mn cm | humidity % | barometer mb |
| 20260506051007 | 7 | 174 | 0.0 | 3.2 | 0.00 | 0.00 | 0.00 | 72 | 1012.2 |
| 20260506050507 | 7 | 135 | 0.0 | 3.2 | 0.00 | 0.00 | 0.00 | 72 | 1012.2 |
| 20260506045007 | 6 | 151 | 0.0 | 3.2 | 0.00 | 0.00 | 0.00 | 73 | 1012.0 |
| 20260506044528 | 6 | 180 | 0.0 | 3.2 | 0.00 | 0.00 | 0.00 | 80 | 1012.1 |
| 20260506044007 | 6 | 178 | 0.0 | 3.2 | 0.00 | 0.00 | 0.00 | 80 | 1012.0 |
| 20260506043507 | 6 | 99 | 0.0 | 3.2 | 0.00 | 0.00 | 0.00 | 80 | 1012.0 |
| 20260506043028 | 6 | 45 | 0.0 | 3.2 | 0.00 | 0.00 | 0.00 | 80 | 1011.9 |
| 20260506042507 | 6 | 0 | 0.0 | 0.0 | 0.00 | 0.00 | 0.00 | 79 | 1011.9 |
| 20260506042007 | 6 | 45 | 0.0 | 1.6 | 0.00 | 0.00 | 0.00 | 79 | 1011.9 |
| 20260506041507 | 6 | 45 | 0.0 | 3.2 | 0.00 | 0.00 | 0.00 | 80 | 1011.8 |
| 20260506041007 | 6 | 46 | 0.0 | 3.2 | 0.00 | 0.00 | 0.00 | 80 | 1011.9 |
| 20260506040528 | 6 | 203 | 0.0 | 3.2 | 0.00 | 0.00 | 0.00 | 80 | 1011.9 |
| 20260506040007 | 6 | 209 | 0.0 | 3.2 | 0.00 | 0.00 | 0.00 | 79 | 1011.9 |
| 20260506035528 | 6 | 90 | 0.0 | 3.2 | 0.00 | 0.00 | 0.00 | 79 | 1011.8 |
| 20260506035007 | 6 | 81 | 0.0 | 3.2 | 0.00 | 0.00 | 0.00 | 79 | 1011.7 |
| 20260506034507 | 6 | 82 | 0.0 | 3.2 | 0.00 | 0.00 | 0.00 | 78 | 1011.6 |
| 20260506034007 | 6 | 95 | 0.0 | 3.2 | 0.00 | 0.00 | 0.00 | 78 | 1011.7 |
| 20260506033506 | 6 | 139 | 0.0 | 3.2 | 0.00 | 0.00 | 0.00 | 78 | 1011.6 |
| 20260506033007 | 6 | 236 | 0.0 | 3.2 | 0.00 | 0.00 | 0.00 | 77 | 1011.6 |
| 20260506032507 | 6 | 299 | 0.0 | 3.2 | 0.00 | 0.00 | 0.00 | 72 | 1011.7 |
| 20260506032007 | 6 | 360 | 0.0 | 3.2 | 0.00 | 0.00 | 0.00 | 71 | 1011.7 |
| 20260506031507 | 6 | 180 | 0.0 | 3.2 | 0.00 | 0.00 | 0.00 | 71 | 1011.7 |
| 20260506031028 | 6 | 180 | 0.0 | 3.2 | 0.00 | 0.00 | 0.00 | 71 | 1011.6 |
| 20260506030508 | 6 | 180 | 0.0 | 3.2 | 0.00 | 0.00 | 0.00 | 71 | 1011.7 |
| 20260506030007 | 6 | 180 | 1.6 | 3.2 | 0.00 | 0.00 | 0.00 | 71 | 1011.6 |
| 20260506025506 | 7 | 169 | 1.6 | 3.2 | 0.00 | 0.00 | 0.00 | 71 | 1011.5 |
| 20260506025007 | 7 | 70 | 1.6 | 3.2 | 0.00 | 0.00 | 0.00 | 71 | 1011.6 |
| 20260506024507 | 7 | 95 | 1.6 | 3.2 | 0.00 | 0.00 | 0.00 | 71 | 1011.6 |
| 20260506024007 | 7 | 180 | 0.0 | 3.2 | 0.00 | 0.00 | 0.00 | 71 | 1011.5 |
| 20260506023506 | 7 | 180 | 0.0 | 1.6 | 0.00 | 0.00 | 0.00 | 70 | 1011.6 |
| 20260506023007 | 7 | 0 | 0.0 | 0.0 | 0.00 | 0.00 | 0.00 | 70 | 1011.6 |
| 20260506022506 | 7 | 180 | 0.0 | 3.2 | 0.00 | 0.00 | 0.00 | 70 | 1011.7 |
| 20260506022006 | 7 | 182 | 1.6 | 3.2 | 0.00 | 0.00 | 0.00 | 70 | 1011.6 |
| 20260506021506 | 7 | 199 | 1.6 | 3.2 | 0.00 | 0.00 | 0.00 | 70 | 1011.6 |
| 20260506021006 | 7 | 226 | 1.6 | 4.8 | 0.00 | 0.00 | 0.00 | 70 | 1011.6 |
| 20260506020506 | 7 | 217 | 1.6 | 4.8 | 0.00 | 0.00 | 0.00 | 70 | 1011.8 |
| 20260506020007 | 7 | 142 | 1.6 | 4.8 | 0.00 | 0.00 | 0.00 | 70 | 1011.6 |
| 20260506015506 | 7 | 106 | 1.6 | 4.8 | 0.00 | 0.00 | 0.00 | 70 | 1011.6 |
| 20260506015006 | 7 | 67 | 1.6 | 3.2 | 0.00 | 0.00 | 0.00 | 70 | 1011.5 |
| 20260506014506 | 7 | 45 | 0.0 | 3.2 | 0.00 | 0.00 | 0.00 | 70 | 1011.7 |
| 20260506014027 | 7 | 167 | 0.0 | 3.2 | 0.00 | 0.00 | 0.00 | 70 | 1011.7 |
| 20260506013527 | 7 | 176 | 1.6 | 3.2 | 0.00 | 0.00 | 0.00 | 70 | 1011.7 |
| 20260506013006 | 7 | 186 | 1.6 | 3.2 | 0.00 | 0.00 | 0.00 | 70 | 1011.9 |
| 20260506012506 | 7 | 185 | 0.0 | 3.2 | 0.00 | 0.00 | 0.00 | 69 | 1011.8 |
| 20260506012007 | 7 | 180 | 1.6 | 3.2 | 0.00 | 0.00 | 0.00 | 69 | 1011.6 |
| 20260506011507 | 7 | 180 | 0.0 | 3.2 | 0.00 | 0.00 | 0.00 | 69 | 1011.7 |
| 20260506011028 | 7 | 180 | 0.0 | 3.2 | 0.00 | 0.00 | 0.00 | 68 | 1011.7 |
| 20260506010527 | 7 | 200 | 1.6 | 4.8 | 0.00 | 0.00 | 0.00 | 68 | 1011.6 |
| 20260506010006 | 7 | 236 | 1.6 | 4.8 | 0.00 | 0.00 | 0.00 | 68 | 1011.6 |
| 20260506005507 | 7 | 198 | 1.6 | 4.8 | 0.00 | 0.00 | 0.00 | 68 | 1011.8 |
| 20260506005006 | 7 | 167 | 1.6 | 4.8 | 0.00 | 0.00 | 0.00 | 67 | 1011.6 |
| 20260506004506 | 7 | 108 | 1.6 | 6.4 | 0.00 | 0.00 | 0.00 | 67 | 1011.6 |
| 20260506004006 | 7 | 161 | 3.2 | 6.4 | 0.00 | 0.00 | 0.00 | 67 | 1011.7 |
| 20260506003506 | 7 | 151 | 1.6 | 6.4 | 0.00 | 0.00 | 0.00 | 67 | 1011.7 |
| 20260506003007 | 7 | 80 | 1.6 | 3.2 | 0.00 | 0.00 | 0.00 | 67 | 1011.8 |
| 20260506002506 | 7 | 69 | 0.0 | 3.2 | 0.00 | 0.00 | 0.00 | 67 | 1011.8 |
| 20260506002006 | 7 | 72 | 0.0 | 3.2 | 0.00 | 0.00 | 0.00 | 67 | 1011.8 |
| 20260506001506 | 7 | 105 | 0.0 | 3.2 | 0.00 | 0.00 | 0.00 | 67 | 1011.9 |
| 20260506001006 | 7 | 77 | 0.0 | 3.2 | 0.00 | 0.00 | 0.00 | 68 | 1011.9 |
| 20260506000506 | 7 | 35 | 0.0 | 3.2 | 0.00 | 0.00 | 0.00 | 68 | 1012.0 |
| 20260506000006 | 7 | 116 | 0.0 | 3.2 | 0.00 | 0.00 | 0.00 | 68 | 1012.1 |
| 20260505235506 | 7 | 165 | 0.0 | 3.2 | 0.00 | 0.00 | 0.00 | 68 | 1012.0 |
| 20260505235027 | 7 | 151 | 0.0 | 3.2 | 0.00 | 0.00 | 0.00 | 68 | 1012.1 |
| 20260505234506 | 7 | 135 | 0.0 | 1.6 | 0.00 | 0.00 | 0.00 | 67 | 1012.0 |
| 20260505234006 | 7 | 141 | 0.0 | 3.2 | 0.00 | 0.00 | 0.00 | 67 | 1012.2 |
| 20260505233506 | 7 | 172 | 0.0 | 3.2 | 0.00 | 0.00 | 0.00 | 67 | 1012.1 |
| 20260505233006 | 7 | 192 | 0.0 | 3.2 | 0.00 | 0.00 | 0.00 | 66 | 1012.1 |
| 20260505232507 | 7 | 225 | 0.0 | 3.2 | 0.00 | 0.00 | 0.00 | 65 | 1012.1 |
| 20260505232006 | 7 | 225 | 0.0 | 3.2 | 0.00 | 0.00 | 0.00 | 65 | 1012.2 |
| 20260505231506 | 7 | 67 | 0.0 | 3.2 | 0.00 | 0.00 | 0.00 | 64 | 1012.2 |
| 20260505231006 | 7 | 92 | 1.6 | 6.4 | 0.00 | 0.00 | 0.00 | 64 | 1012.2 |
| 20260505230506 | 8 | 104 | 1.6 | 6.4 | 0.00 | 0.00 | 0.00 | 64 | 1012.3 |
| 20260505230006 | 8 | 101 | 1.6 | 4.8 | 0.00 | 0.00 | 0.00 | 63 | 1012.3 |
| 20260505225506 | 8 | 360 | 0.0 | 3.2 | 0.00 | 0.00 | 0.00 | 63 | 1012.2 |
| 20260505225006 | 8 | 360 | 0.0 | 3.2 | 0.00 | 0.00 | 0.00 | 63 | 1012.2 |
| 20260505224527 | 8 | 0 | 0.0 | 0.0 | 0.00 | 0.00 | 0.00 | 63 | 1012.3 |
| 20260505224006 | 8 | 90 | 0.0 | 1.6 | 0.00 | 0.00 | 0.00 | 62 | 1012.3 |
| 20260505223506 | 8 | 63 | 0.0 | 3.2 | 0.00 | 0.00 | 0.00 | 62 | 1012.3 |
| 20260505223006 | 8 | 27 | 1.6 | 3.2 | 0.00 | 0.00 | 0.00 | 62 | 1012.2 |
| 20260505222506 | 8 | 25 | 1.6 | 3.2 | 0.00 | 0.00 | 0.00 | 62 | 1012.1 |
| 20260505222027 | 8 | 54 | 0.0 | 3.2 | 0.00 | 0.00 | 0.00 | 62 | 1012.3 |
| 20260505221506 | 8 | 45 | 0.0 | 3.2 | 0.00 | 0.00 | 0.00 | 61 | 1012.4 |
| 20260505221005 | 9 | 45 | 0.0 | 3.2 | 0.00 | 0.00 | 0.00 | 61 | 1012.3 |
| 20260505220527 | 9 | 45 | 0.0 | 3.2 | 0.00 | 0.00 | 0.00 | 61 | 1012.4 |
| 20260505220006 | 9 | 45 | 0.0 | 3.2 | 0.00 | 0.00 | 0.00 | 61 | 1012.3 |
| 20260505215506 | 9 | 45 | 0.0 | 3.2 | 0.00 | 0.00 | 0.00 | 61 | 1012.4 |
| 20260505215006 | 10 | 45 | 0.0 | 3.2 | 0.00 | 0.00 | 0.00 | 60 | 1012.3 |
| 20260505214506 | 10 | 45 | 0.0 | 3.2 | 0.00 | 0.00 | 0.00 | 60 | 1012.4 |
| 20260505214006 | 10 | 45 | 0.0 | 3.2 | 0.00 | 0.00 | 0.00 | 60 | 1012.5 |
| 20260505213506 | 10 | 33 | 1.6 | 3.2 | 0.00 | 0.00 | 0.00 | 60 | 1012.4 |
| 20260505213005 | 10 | 9 | 0.0 | 3.2 | 0.00 | 0.00 | 0.00 | 58 | 1012.5 |
| 20260505212506 | 10 | 307 | 0.0 | 3.2 | 0.00 | 0.00 | 0.00 | 57 | 1012.4 |
| 20260505212006 | 10 | 321 | 0.0 | 3.2 | 0.00 | 0.00 | 0.00 | 57 | 1012.4 |
| 20260505211505 | 10 | 355 | 0.0 | 3.2 | 0.00 | 0.00 | 0.00 | 56 | 1012.4 |
| 20260505211006 | 10 | 120 | 0.0 | 3.2 | 0.00 | 0.00 | 0.00 | 55 | 1012.3 |
| 20260505210506 | 11 | 72 | 1.6 | 6.4 | 0.00 | 0.00 | 0.00 | 55 | 1012.3 |
| 20260505210006 | 11 | 39 | 1.6 | 6.4 | 0.00 | 0.00 | 0.00 | 55 | 1012.2 |
| 20260505205506 | 11 | 19 | 0.0 | 4.8 | 0.00 | 0.00 | 0.00 | 55 | 1012.2 |
| 20260505205006 | 11 | 360 | 0.0 | 3.2 | 0.00 | 0.00 | 0.00 | 51 | 1012.3 |
| 20260505204526 | 11 | 360 | 0.0 | 3.2 | 0.00 | 0.00 | 0.00 | 51 | 1012.3 |
| 20260505204005 | 12 | 180 | 0.0 | 3.2 | 0.00 | 0.00 | 0.00 | 50 | 1012.3 |
| 20260505203506 | 12 | 136 | 0.0 | 4.8 | 0.00 | 0.00 | 0.00 | 50 | 1012.3 |
| 20260505203006 | 12 | 58 | 1.6 | 6.4 | 0.00 | 0.00 | 0.00 | 50 | 1012.2 |
| 20260505202506 | 12 | 45 | 1.6 | 6.4 | 0.00 | 0.00 | 0.00 | 49 | 1012.2 |
| 20260505202006 | 12 | 45 | 0.0 | 3.2 | 0.00 | 0.00 | 0.00 | 50 | 1012.2 |
| 20260505201505 | 12 | 45 | 0.0 | 3.2 | 0.00 | 0.00 | 0.00 | 49 | 1012.1 |
| 20260505201006 | 12 | 45 | 0.0 | 3.2 | 0.00 | 0.00 | 0.00 | 48 | 1012.1 |
| 20260505200506 | 12 | 45 | 0.0 | 3.2 | 0.00 | 0.00 | 0.00 | 48 | 1012.0 |
| 20260505200006 | 13 | 45 | 0.0 | 3.2 | 0.00 | 0.00 | 0.00 | 46 | 1012.0 |
| 20260505195527 | 13 | 45 | 0.0 | 3.2 | 0.00 | 0.00 | 0.00 | 45 | 1012.1 |
| 20260505195006 | 13 | 45 | 0.0 | 3.2 | 0.00 | 0.00 | 0.00 | 44 | 1012.0 |
| 20260505194505 | 13 | 45 | 0.0 | 3.2 | 0.00 | 0.00 | 0.00 | 43 | 1012.0 |
| 20260505194026 | 14 | 45 | 0.0 | 1.6 | 0.00 | 0.00 | 0.00 | 43 | 1011.9 |
| 20260505193506 | 14 | 45 | 0.0 | 1.6 | 0.00 | 0.00 | 0.00 | 42 | 1011.9 |
| 20260505193005 | 14 | 45 | 0.0 | 1.6 | 0.00 | 0.00 | 0.00 | 42 | 1011.9 |
| 20260505192527 | 15 | 45 | 0.0 | 3.2 | 0.00 | 0.00 | 0.00 | 41 | 1011.8 |
| 20260505192005 | 15 | 45 | 0.0 | 3.2 | 0.00 | 0.00 | 0.00 | 41 | 1011.7 |
| 20260505191526 | 15 | 45 | 0.0 | 3.2 | 0.00 | 0.00 | 0.00 | 40 | 1011.8 |
| 20260505191006 | 16 | 45 | 0.0 | 3.2 | 0.00 | 0.00 | 0.00 | 39 | 1011.8 |
| 20260505190505 | 16 | 0 | 0.0 | 0.0 | 0.00 | 0.00 | 0.00 | 37 | 1011.7 |
| 20260505190006 | 16 | 0 | 0.0 | 0.0 | 0.00 | 0.00 | 0.00 | 32 | 1011.7 |
| 20260505185505 | 16 | 0 | 0.0 | 0.0 | 0.00 | 0.00 | 0.00 | 32 | 1011.6 |
| 20260505185005 | 17 | 225 | 0.0 | 3.2 | 0.00 | 0.00 | 0.00 | 31 | 1011.6 |
| 20260505184505 | 17 | 222 | 0.0 | 3.2 | 0.00 | 0.00 | 0.00 | 30 | 1011.5 |
| 20260505184005 | 17 | 204 | 0.0 | 3.2 | 0.00 | 0.00 | 0.00 | 30 | 1011.6 |
| 20260505183526 | 18 | 195 | 0.0 | 3.2 | 0.00 | 0.00 | 0.00 | 30 | 1011.7 |
| 20260505183005 | 18 | 185 | 1.6 | 4.8 | 0.00 | 0.00 | 0.00 | 28 | 1011.5 |
| 20260505182505 | 18 | 180 | 3.2 | 4.8 | 0.00 | 0.00 | 0.00 | 27 | 1011.6 |
| 20260505182005 | 18 | 180 | 3.2 | 4.8 | 0.00 | 0.00 | 0.00 | 26 | 1011.6 |
| 20260505181505 | 18 | 184 | 3.2 | 6.4 | 0.00 | 0.00 | 0.00 | 25 | 1011.5 |
| 20260505181005 | 19 | 177 | 6.4 | 12.9 | 0.00 | 0.00 | 0.00 | 25 | 1011.5 |
| 20260505180506 | 19 | 180 | 8.0 | 12.9 | 0.00 | 0.00 | 0.00 | 25 | 1011.4 |
| 20260505180005 | 19 | 187 | 8.0 | 14.5 | 0.00 | 0.00 | 0.00 | 25 | 1011.5 |
| 20260505175527 | 19 | 184 | 9.7 | 17.7 | 0.00 | 0.00 | 0.00 | 25 | 1011.5 |
| 20260505175005 | 20 | 182 | 11.3 | 17.7 | 0.00 | 0.00 | 0.00 | 25 | 1011.5 |
| 20260505174505 | 20 | 178 | 12.9 | 19.3 | 0.00 | 0.00 | 0.00 | 26 | 1011.5 |
| 20260505174026 | 20 | 177 | 14.5 | 22.5 | 0.00 | 0.00 | 0.00 | 26 | 1011.5 |
| 20260505173505 | 20 | 177 | 14.5 | 22.5 | 0.00 | 0.00 | 0.00 | 26 | 1011.5 |
| 20260505173005 | 20 | 182 | 12.9 | 27.4 | 0.00 | 0.00 | 0.00 | 26 | 1011.4 |
| 20260505172505 | 20 | 182 | 12.9 | 27.4 | 0.00 | 0.00 | 0.00 | 26 | 1011.5 |
| 20260505172005 | 20 | 183 | 12.9 | 27.4 | 0.00 | 0.00 | 0.00 | 28 | 1011.5 |
| 20260505171505 | 21 | 188 | 12.9 | 22.5 | 0.00 | 0.00 | 0.00 | 27 | 1011.4 |
| 20260505171005 | 21 | 194 | 11.3 | 19.3 | 0.00 | 0.00 | 0.00 | 28 | 1011.4 |
| 20260505170505 | 21 | 195 | 11.3 | 17.7 | 0.00 | 0.00 | 0.00 | 27 | 1011.4 |
| 20260505170006 | 21 | 190 | 11.3 | 19.3 | 0.00 | 0.00 | 0.00 | 27 | 1011.4 |
| 20260505165505 | 21 | 172 | 14.5 | 24.1 | 0.00 | 0.00 | 0.00 | 26 | 1011.5 |
| 20260505165006 | 21 | 166 | 17.7 | 30.6 | 0.00 | 0.00 | 0.00 | 25 | 1011.4 |
| 20260505164505 | 21 | 175 | 17.7 | 30.6 | 0.00 | 0.00 | 0.00 | 26 | 1011.5 |
| 20260505164005 | 21 | 190 | 16.1 | 27.4 | 0.00 | 0.00 | 0.00 | 26 | 1011.4 |
| 20260505163505 | 21 | 188 | 16.1 | 27.4 | 0.00 | 0.00 | 0.00 | 26 | 1011.4 |
| 20260505163005 | 21 | 182 | 14.5 | 35.4 | 0.00 | 0.00 | 0.00 | 27 | 1011.5 |
| 20260505162505 | 21 | 196 | 14.5 | 35.4 | 0.00 | 0.00 | 0.00 | 25 | 1011.5 |
| 20260505162005 | 21 | 204 | 17.7 | 35.4 | 0.00 | 0.00 | 0.00 | 23 | 1011.5 |
| 20260505161505 | 21 | 205 | 16.1 | 27.4 | 0.00 | 0.00 | 0.00 | 22 | 1011.5 |
| 20260505161005 | 21 | 191 | 12.9 | 25.7 | 0.00 | 0.00 | 0.00 | 24 | 1011.5 |
| 20260505160526 | 22 | 180 | 12.9 | 20.9 | 0.00 | 0.00 | 0.00 | 23 | 1011.5 |
| 20260505153005 | 22 | 204 | 19.3 | 33.8 | 0.00 | 0.00 | 0.00 | 23 | 1011.7 |
| 20260505152505 | 22 | 198 | 16.1 | 33.8 | 0.00 | 0.00 | 0.00 | 23 | 1011.7 |
| 20260505152005 | 22 | 190 | 16.1 | 27.4 | 0.00 | 0.00 | 0.00 | 23 | 1011.8 |
| 20260505151504 | 22 | 185 | 16.1 | 27.4 | 0.00 | 0.00 | 0.00 | 23 | 1011.9 |
| 20260505151005 | 22 | 180 | 16.1 | 27.4 | 0.00 | 0.00 | 0.00 | 22 | 1011.8 |
| 20260505150525 | 22 | 183 | 17.7 | 29.0 | 0.00 | 0.00 | 0.00 | 22 | 1012.0 |
| 20260505140525 | 23 | 172 | 11.3 | 24.1 | 0.00 | 0.00 | 0.00 | 23 | 1012.2 |
| 20260505125004 | 22 | 189 | 17.7 | 33.8 | 0.00 | 0.00 | 0.00 | 29 | 1013.2 |
| 20260505124526 | 22 | 198 | 17.7 | 33.8 | 0.00 | 0.00 | 0.00 | 30 | 1013.2 |
| 20260505124004 | 22 | 187 | 17.7 | 24.1 | 0.00 | 0.00 | 0.00 | 29 | 1013.2 |
| 20260505123504 | 22 | 181 | 19.3 | 27.4 | 0.00 | 0.00 | 0.00 | 30 | 1013.1 |
| 20260505123004 | 22 | 182 | 20.9 | 33.8 | 0.00 | 0.00 | 0.00 | 26 | 1013.1 |
| 20260505122504 | 22 | 185 | 20.9 | 33.8 | 0.00 | 0.00 | 0.00 | 26 | 1013.3 |
| 20260505122004 | 22 | 182 | 19.3 | 37.0 | 0.00 | 0.00 | 0.00 | 28 | 1013.3 |
| 20260505121525 | 22 | 192 | 20.9 | 41.8 | 0.00 | 0.00 | 0.00 | 28 | 1013.3 |
| 20260505121025 | 22 | 193 | 20.9 | 41.8 | 0.00 | 0.00 | 0.00 | 28 | 1013.4 |
| 20260505120504 | 22 | 181 | 16.1 | 33.8 | 0.00 | 0.00 | 0.00 | 28 | 1013.4 |
| 20260505120005 | 22 | 172 | 16.1 | 27.4 | 0.00 | 0.00 | 0.00 | 26 | 1013.4 |
| 20260505115504 | 22 | 178 | 16.1 | 27.4 | 0.00 | 0.00 | 0.00 | 26 | 1013.3 |
| 20260505115004 | 22 | 180 | 19.3 | 35.4 | 0.00 | 0.00 | 0.00 | 28 | 1013.4 |
| 20260505114504 | 22 | 185 | 19.3 | 35.4 | 0.00 | 0.00 | 0.00 | 28 | 1013.4 |
| 20260505114004 | 22 | 190 | 14.5 | 35.4 | 0.00 | 0.00 | 0.00 | 28 | 1013.5 |
| 20260505113504 | 22 | 192 | 11.3 | 17.7 | 0.00 | 0.00 | 0.00 | 26 | 1013.5 |
| 20260505113025 | 22 | 203 | 11.3 | 17.7 | 0.00 | 0.00 | 0.00 | 29 | 1013.5 |
| 20260505112504 | 22 | 189 | 14.5 | 24.1 | 0.00 | 0.00 | 0.00 | 29 | 1013.7 |
| 20260505112025 | 22 | 182 | 14.5 | 27.4 | 0.00 | 0.00 | 0.00 | 27 | 1013.8 |
| 20260505111504 | 22 | 197 | 16.1 | 33.8 | 0.00 | 0.00 | 0.00 | 27 | 1014.0 |
| 20260505111004 | 22 | 199 | 16.1 | 33.8 | 0.00 | 0.00 | 0.00 | 26 | 1014.1 |
| 20260505110525 | 22 | 190 | 17.7 | 32.2 | 0.00 | 0.00 | 0.00 | 27 | 1013.9 |
| 20260505102004 | 22 | 191 | 14.5 | 25.7 | 0.00 | 0.00 | 0.00 | 26 | 1014.4 |
| 20260505101524 | 22 | 190 | 11.3 | 25.7 | 0.00 | 0.00 | 0.00 | 26 | 1014.2 |
| 20260505101004 | 22 | 166 | 11.3 | 24.1 | 0.00 | 0.00 | 0.00 | 26 | 1014.4 |
| 20260505100504 | 21 | 165 | 12.9 | 24.1 | 0.00 | 0.00 | 0.00 | 28 | 1014.5 |
| 20260505100004 | 21 | 163 | 12.9 | 24.1 | 0.00 | 0.00 | 0.00 | 28 | 1014.6 |
| 20260505095524 | 21 | 161 | 11.3 | 24.1 | 0.00 | 0.00 | 0.00 | 27 | 1014.5 |
| 20260505095003 | 21 | 168 | 12.9 | 24.1 | 0.00 | 0.00 | 0.00 | 28 | 1014.7 |
| 20260505094504 | 21 | 182 | 16.1 | 27.4 | 0.00 | 0.00 | 0.00 | 28 | 1014.9 |
| 20260505094004 | 21 | 190 | 17.7 | 27.4 | 0.00 | 0.00 | 0.00 | 31 | 1014.8 |
| 20260505093504 | 21 | 197 | 17.7 | 25.7 | 0.00 | 0.00 | 0.00 | 30 | 1014.7 |
| 20260505093004 | 21 | 187 | 19.3 | 30.6 | 0.00 | 0.00 | 0.00 | 31 | 1014.8 |
| 20260505092525 | 21 | 193 | 20.9 | 30.6 | 0.00 | 0.00 | 0.00 | 30 | 1014.8 |
| 20260505092004 | 21 | 202 | 19.3 | 29.0 | 0.00 | 0.00 | 0.00 | 31 | 1014.8 |
| 20260505091503 | 21 | 188 | 17.7 | 29.0 | 0.00 | 0.00 | 0.00 | 31 | 1014.8 |
| 20260505091004 | 21 | 195 | 19.3 | 32.2 | 0.00 | 0.00 | 0.00 | 31 | 1014.8 |
| 20260505090503 | 21 | 199 | 19.3 | 32.2 | 0.00 | 0.00 | 0.00 | 32 | 1014.7 |
| 20260505090004 | 20 | 191 | 17.7 | 32.2 | 0.00 | 0.00 | 0.00 | 33 | 1014.8 |
| 20260505085504 | 20 | 182 | 19.3 | 33.8 | 0.00 | 0.00 | 0.00 | 33 | 1014.8 |
| 20260505085004 | 20 | 184 | 17.7 | 33.8 | 0.00 | 0.00 | 0.00 | 34 | 1015.0 |
| 20260505084503 | 20 | 200 | 16.1 | 27.4 | 0.00 | 0.00 | 0.00 | 35 | 1014.9 |
| 20260505084003 | 19 | 197 | 16.1 | 24.1 | 0.00 | 0.00 | 0.00 | 35 | 1014.9 |
| 20260505083503 | 19 | 179 | 16.1 | 24.1 | 0.00 | 0.00 | 0.00 | 35 | 1014.9 |
| 20260505083004 | 18 | 169 | 11.3 | 20.9 | 0.00 | 0.00 | 0.00 | 36 | 1014.9 |
| 20260505082504 | 18 | 174 | 6.4 | 20.9 | 0.00 | 0.00 | 0.00 | 39 | 1014.9 |
| 20260505082004 | 17 | 209 | 4.8 | 9.7 | 0.00 | 0.00 | 0.00 | 40 | 1014.9 |
| 20260505081503 | 17 | 313 | 3.2 | 9.7 | 0.00 | 0.00 | 0.00 | 40 | 1014.9 |
| 20260505081003 | 17 | 1 | 3.2 | 9.7 | 0.00 | 0.00 | 0.00 | 41 | 1015.0 |
| 20260505080503 | 16 | 76 | 3.2 | 9.7 | 0.00 | 0.00 | 0.00 | 43 | 1015.1 |
| 20260505080003 | 16 | 70 | 4.8 | 9.7 | 0.00 | 0.00 | 0.00 | 48 | 1015.2 |
| 20260505075503 | 15 | 56 | 4.8 | 9.7 | 0.00 | 0.00 | 0.00 | 48 | 1015.2 |
| 20260505075003 | 14 | 234 | 3.2 | 6.4 | 0.00 | 0.00 | 0.00 | 51 | 1015.3 |
| 20260505074503 | 14 | 217 | 3.2 | 4.8 | 0.00 | 0.00 | 0.00 | 52 | 1015.4 |
| 20260505074003 | 13 | 175 | 1.6 | 4.8 | 0.00 | 0.00 | 0.00 | 53 | 1015.4 |
| 20260505073524 | 13 | 88 | 1.6 | 6.4 | 0.00 | 0.00 | 0.00 | 53 | 1015.4 |
| 20260505073004 | 12 | 81 | 1.6 | 6.4 | 0.00 | 0.00 | 0.00 | 53 | 1015.5 |
| 20260505072524 | 12 | 158 | 1.6 | 6.4 | 0.00 | 0.00 | 0.00 | 53 | 1015.5 |
| 20260505072003 | 12 | 126 | 1.6 | 6.4 | 0.00 | 0.00 | 0.00 | 54 | 1015.7 |
| 20260505071503 | 11 | 76 | 1.6 | 6.4 | 0.00 | 0.00 | 0.00 | 54 | 1015.8 |
| 20260505071003 | 11 | 51 | 1.6 | 6.4 | 0.00 | 0.00 | 0.00 | 60 | 1015.8 |
| 20260505070524 | 11 | 72 | 3.2 | 6.4 | 0.00 | 0.00 | 0.00 | 60 | 1015.9 |
| 20260505070003 | 10 | 45 | 3.2 | 6.4 | 0.00 | 0.00 | 0.00 | 60 | 1015.9 |
| 20260505065507 | 10 | 343 | 3.2 | 6.4 | 0.00 | 0.00 | 0.00 | 60 | 1016.0 |
| 20260505065007 | 10 | 89 | 3.2 | 6.4 | 0.00 | 0.00 | 0.00 | 61 | 1016.0 |
| 20260505064507 | 9 | 70 | 3.2 | 6.4 | 0.00 | 0.00 | 0.00 | 61 | 1016.1 |
| 20260505064007 | 8 | 11 | 1.6 | 4.8 | 0.00 | 0.00 | 0.00 | 61 | 1016.2 |
| 20260505063507 | 8 | 329 | 1.6 | 3.2 | 0.00 | 0.00 | 0.00 | 62 | 1016.2 |
| 20260505063007 | 8 | 235 | 1.6 | 3.2 | 0.00 | 0.00 | 0.00 | 62 | 1016.2 |
| 20260505062507 | 7 | 328 | 1.6 | 4.8 | 0.00 | 0.00 | 0.00 | 63 | 1016.3 |
| 20260505062007 | 7 | 20 | 1.6 | 4.8 | 0.00 | 0.00 | 0.00 | 63 | 1016.4 |
| 20260505061507 | 7 | 157 | 1.6 | 4.8 | 0.00 | 0.00 | 0.00 | 64 | 1016.5 |
| 20260505061007 | 7 | 191 | 1.6 | 4.8 | 0.00 | 0.00 | 0.00 | 65 | 1016.5 |
| 20260505060507 | 6 | 193 | 1.6 | 4.8 | 0.00 | 0.00 | 0.00 | 65 | 1016.5 |
| 20260505060007 | 6 | 139 | 1.6 | 3.2 | 0.00 | 0.00 | 0.00 | 70 | 1016.5 |
| 20260505055507 | 6 | 90 | 1.6 | 3.2 | 0.00 | 0.00 | 0.00 | 71 | 1016.5 |
| 20260505055007 | 6 | 122 | 1.6 | 3.2 | 0.00 | 0.00 | 0.00 | 71 | 1016.6 |
| 20260505054507 | 5 | 159 | 1.6 | 4.8 | 0.00 | 0.00 | 0.00 | 71 | 1016.7 |
| 20260505054007 | 5 | 158 | 1.6 | 4.8 | 0.00 | 0.00 | 0.00 | 71 | 1016.6 |
| 20260505053507 | 5 | 161 | 1.6 | 3.2 | 0.00 | 0.00 | 0.00 | 72 | 1016.6 |